Vertical_Velocity
1 1 -1 0 1 1 0 3 1 1 2 1 -1 1 -2 6 -2 4 -2 -4 1 -4 -2 -5 1 4 -2
-3 1 -8 -4 1 1 2 1 -0 -2 -6 -7 -0 -3 2 -6 3 -2 -0 -2 1 0 -2 0 -1 6 -4
4 -3 1 -3 -1 -3 -1 -4 2 -2 -2 4 -2 -4 0 -0 1 2 -6 -0 -2 -1 5 -0 14 2 2
1 -2 -1 -4 1 -2 -3 2 7 -1 3 2 -3 1 -3 4 1 -2 -1 2 -1 -4 2 2 2 4 5
-0 1 -1 2 -1 -0 -1 -0 1 1 3 -1 -3 -3 1 -0 -1 1 0 -1 -1 -2 -1 3 -1 2 4
-3 0 1 3 -0 4 -2 -2 1 4 -4 -1 -1 -0 1 0 -4 -4 2 1 -2 -1 1 2 -3 -3 1
3 -5 0 1 7 -3 0 1 2 2 -1 -2 1 2 2 -3 0 1 -1 -1 -1 -1 1 0 -2 -1 -1
3 -5 9 -6 1 2 6 -6 4 -1 -2 -2 2 0 1 1 1 2 -2 -2 -1 0 -0 -1 0 -1 -1
1 -1 -7 -1 2 2 -3 2 -1 -3 -0 1 1 -1 3 -1 1 2 -1 -1 1 1 0 -1 -0 0 -0
8 -1 4 -1 -2 1 -0 -2 -2 -1 2 0 -0 0 -0 1 -2 1 1 0 0 -2 -1 0 0 -0 -1
5 0 -2 1 -2 1 -1 -1 0 -2 -0 -0 -1 1 -1 -0 -1 -0 -2 2 2 1 -0 -0 0 -0 -1
1 2 -0 -3 0 -0 -2 -2 1 1 -3 -1 -0 -0 -1 -2 -1 -2 -1 1 1 1 -0 -1 -0 -1 -1
1 0 -0 -1 1 0 0 -0 -0 2 1 -0 0 -2 -2 -2 -1 0 -0 -0 -0 -1 -1 -2 -0 -1 -1
-0 -1 1 1 -3 1 1 0 -2 -0 0 0 -1 -3 -1 -0 -0 -1 -1 -1 -0 0 -0 -0 -0 -1 -0
-3 -3 3 1 -2 1 0 -0 -0 0 -1 -1 -1 -1 0 -0 -2 -1 -0 -0 -1 -0 -1 -1 -1 -1 -1
-3 0 2 2 -1 2 1 1 1 -1 -1 -0 -0 -1 -0 -1 -1 -0 -1 -0 -0 0 -1 -1 -0 -0 -2
-1 2 1 3 -3 1 1 1 0 -1 -0 -0 -0 -0 -0 -1 0 -1 -1 -0 -1 -2 0 -0 -1 0 -0
Height
1494 1493 1494 1495 1495 1495 1494 1494 1497 1498 1497 1499 1500 1497 1496 1494 1495 1496 1494 1498 1498 1497 1497 1495 1494 1495 1500
1488 1488 1488 1492 1491 1492 1490 1491 1492 1493 1494 1495 1497 1497 1495 1493 1493 1491 1493 1495 1495 1497 1496 1495 1494 1493 1496
1480 1481 1484 1486 1486 1488 1487 1487 1487 1487 1487 1489 1491 1494 1492 1491 1491 1489 1492 1493 1493 1494 1495 1495 1494 1494 1495
1476 1478 1480 1479 1481 1482 1484 1485 1483 1482 1483 1484 1484 1489 1488 1489 1486 1486 1488 1489 1491 1492 1494 1494 1495 1496 1497
1473 1473 1474 1475 1474 1476 1474 1478 1479 1481 1478 1481 1481 1483 1485 1484 1483 1484 1486 1486 1487 1489 1492 1493 1494 1497 1499
1467 1469 1469 1472 1474 1474 1468 1471 1476 1474 1474 1476 1478 1480 1481 1480 1481 1482 1482 1482 1484 1486 1489 1490 1492 1495 1497
1463 1463 1461 1461 1466 1466 1467 1468 1474 1470 1472 1473 1476 1476 1477 1477 1478 1479 1479 1479 1481 1483 1485 1487 1489 1492 1495
1458 1456 1457 1457 1462 1463 1462 1467 1469 1467 1470 1472 1473 1473 1474 1475 1475 1476 1476 1478 1480 1481 1482 1484 1487 1489 1491
1452 1451 1451 1457 1456 1460 1459 1463 1463 1465 1468 1469 1470 1470 1472 1472 1472 1474 1476 1477 1479 1480 1481 1483 1484 1486 1488
1447 1445 1448 1450 1453 1453 1455 1457 1461 1463 1464 1466 1467 1469 1469 1469 1471 1472 1474 1476 1478 1479 1481 1482 1484 1485 1487
1441 1442 1444 1447 1448 1450 1451 1455 1457 1459 1461 1462 1463 1465 1467 1467 1469 1471 1472 1474 1476 1478 1479 1481 1482 1484 1485
1441 1439 1440 1443 1446 1447 1450 1452 1454 1456 1459 1460 1461 1463 1464 1466 1468 1469 1470 1472 1473 1475 1477 1479 1480 1482 1483
1436 1436 1438 1441 1443 1444 1447 1449 1451 1453 1456 1457 1459 1461 1463 1464 1465 1467 1468 1469 1470 1472 1474 1476 1477 1479 1481
1431 1434 1436 1437 1440 1442 1444 1447 1449 1451 1452 1454 1457 1458 1460 1462 1463 1464 1465 1466 1467 1468 1470 1472 1474 1475 1477
1427 1430 1432 1433 1437 1439 1441 1443 1446 1447 1449 1451 1453 1454 1457 1459 1460 1461 1462 1463 1464 1466 1467 1468 1470 1471 1472
1423 1426 1428 1430 1433 1435 1437 1439 1442 1444 1446 1447 1449 1451 1453 1455 1456 1457 1458 1459 1460 1462 1463 1463 1465 1466 1467
1419 1422 1424 1426 1428 1431 1433 1436 1438 1441 1442 1444 1445 1447 1449 1450 1452 1453 1454 1455 1456 1457 1459 1459 1460 1462 1462